Simultaneous Nadir Overpasses (SNOs) Predictions

Prediction of SNOs between GOES-15 and LANDSAT-8 Satellite Orbit:

Table of predicted SNOs for the next 14.0 days since TLE Epoch: 9/11/2020
Index Date Time (GOES-15) GOES-15 Lat,Lon LANDSAT-8 Lat,Lon Distance(km) Time Diff (sec)
1 09/12/2020 18:42:57 0.05,-128.11 0.04,-127.93 20.36 80
2 09/14/2020 18:30:47 0.05,-128.16 -0.63,-124.98 361.03 80
3 09/15/2020 06:54:51 -0.06,-128.21 -0.50,-130.17 223.26 80
4 09/17/2020 06:40:01 -0.05,-128.25 0.17,-127.22 117.08 80
5 09/17/2020 19:03:56 0.06,-128.21 0.97,-132.37 472.74 80
6 09/19/2020 06:27:50 -0.05,-128.29 0.78,-124.26 457.07 80
7 09/19/2020 18:51:46 0.06,-128.25 0.30,-129.42 132.86 80
8 09/21/2020 18:36:55 0.06,-128.28 -0.31,-126.46 206.52 80
9 09/22/2020 07:00:59 -0.07,-128.33 -0.81,-131.65 377.92 80
10 09/24/2020 06:48:49 -0.07,-128.35 -0.13,-128.70 39.27 80
